Other Public Products
Issued by NWS Grand Forks, ND

Home | Current Version | Previous Version | Graphics & Text | Print | Product List | Glossary On
Versions: 1 2 3 4 5 6 7 8 9 10 11 12 13 14 15 16 17 18 19 20 21 22 23 24 25 26 27 28 29 30 31 32 33 34 35 36 37 38 39 40 41 42 43 44 45 46 47 48 49 50
000
FPUS83 KFGF 162331
OPUFGF
PRAIRIE TO PINES WEATHER ROUNDUP
NATIONAL WEATHER SERVICE EASTERN NORTH DAKOTA/GRAND FORKS ND
600 PM CDT TUE SEP 16 2014

 **SATELLITE DATA USED TO AUGMENT SKY COVER AT AUTOMATED STATIONS**
 *****  WEATHER ACROSS EASTERN NORTH DAKOTA  *****

CITY           SKY/WX    TMP DP  RH WIND       PRES   REMARKS
GRAND FORKS    MOSUNNY   72  43  35 S6        29.92F
GRAND FORKS AF SUNNY     72  42  34 S8        29.93F
GRAND CITY NWS   N/A     68 N/A N/A W2          N/A
BUXTON         NOT AVBL
DEVILS LAKE    SUNNY     70  41  35 SE6       29.92S
FARGO          SUNNY     71  42  35 S5        29.95F
WAHPETON ARPT  CLOUDY    68  39  34 S9        29.96S
$$

 *****  WEATHER ACROSS CENTRAL AND WESTERN NORTH DAKOTA  *****

CITY           SKY/WX    TMP DP  RH WIND       PRES   REMARKS
JAMESTOWN      SUNNY     67  47  48 SE3       29.94S
BISMARCK       SUNNY     74  45  35 CALM      29.92F
MINOT          SUNNY     72  42  34 CALM      29.91F
MINOT AFB      SUNNY     71  44  38 NE5       29.91S
GARRISON         N/A     71  41  33 SW8       29.92F
WILLISTON      SUNNY     73  36  25 S8        29.92F
DICKINSON      SUNNY     73  47  39 NE7       29.93S
HETTINGER      SUNNY     77  44  30 NW7       29.93F
$$

 *****  OTHER OBSERVATIONS NORTHEAST NORTH DAKOTA  *****

CITY           SKY/WX    TMP DP  RH WIND       PRES   REMARKS
WALHALLA         N/A     72  45  37 E7        29.90S
LANGDON        FAIR      72  37  28 SW10      29.91F
CAVALIER       FAIR      72  45  37 E6        29.90S HAZE
GRAFTON        FAIR      72  41  33 SW10      29.90F
CANDO          FAIR      68  39  34 SE7       29.93S
FORT TOTTEN      N/A     72  45  37 NE2       29.95
ROLLA          FAIR      68  37  32 W7        29.93F
RUGBY          FAIR      70  43  37 CALM      29.92S
 ***** THE ABOVE OBSERVATIONS ARE NON NWS ARE NOT QUALITY
        CONTROLLED AND MAY MIS-REPORT RAIN FOR SNOW...
$$

 *****  OTHER OBSERVATIONS SOUTHEAST NORTH DAKOTA *****

CITY           SKY/WX    TMP DP  RH WIND       PRES   REMARKS
COOPERSTOWN    NOT AVBL
VALLEY CITY    FAIR      68  48  49 SE6       29.94S
OAKES            N/A     70  52  52 SW7       29.93S
GWINNER        PTCLDY    72  52  49 SE7       29.94S
SHEYENNE NWR     N/A     73  47  39 SE8       29.95S
BUFFALO          N/A     70  39  32 SE3         N/A
WYNDMERE         N/A     72  46  40 SE8         N/A
 ***** THE ABOVE OBSERVATIONS ARE NON NWS ARE NOT QUALITY
       CONTROLLED AND MAY MIS-REPORT RAIN FOR SNOW...
$$

  *****  WEATHER ACROSS NORTHERN MINNESOTA  *****

CITY           SKY/WX    TMP DP  RH WIND       PRES   REMARKS
FLAG ISLAND    CLOUDY    59  52  77 SE5       29.94S
WARROAD        MOSUNNY   57  52  82 E5        29.95F
ROSEAU         MOSUNNY   63  52  67 E5        29.94F
HALLOCK        SUNNY     72  46  40 E7        29.90F
THF RVR FALLS  SUNNY     70  43  37 SW8       29.94F
HALSTAD          N/A     69  37  31 S6          N/A
FOSSTON        SUNNY     70  41  35 CALM      29.97S
BAUDETTE       CLOUDY    57  50  77 CALM      29.96F
WASKISH        MOSUNNY   63  48  59 CALM      29.95F
CROOKSTON      SUNNY     70  43  37 S8        29.95S
$$
  *****  WEATHER ACROSS CENTRAL AND WEST MINNESOTA  *****

CITY           SKY/WX    TMP DP  RH WIND       PRES   REMARKS
BEMIDJI        SUNNY     66  42  40 SW6       29.97F
PARK RAPIDS    SUNNY     66  37  34 S7        29.99F
WADENA         NOT AVBL
DETROIT LAKES  SUNNY     64  41  42 S5        30.00S
MOORHEAD       SUNNY     72  32  23 SE3       29.96S
FERGUS FALLS   MOSUNNY   66  39  37 S8        29.97F
ELBOW LAKE     CLOUDY    66  46  48 SE9       29.98F
MORRIS MN      CLOUDY    68  46  45 S7        29.97F
STAPLES        SUNNY     64  37  36 S3        30.00S
WHEATON        PTSUNNY   64  46  52 SE9       29.98S
$$
  *****  WEATHER ELSEWHERE ACROSS MINNESOTA  *****

CITY           SKY/WX    TMP DP  RH WIND       PRES   REMARKS
DULUTH         MOSUNNY   66  41  40 W14       29.99F
INTRNTL FALLS  CLOUDY    58  52  80 CALM      29.97F
ELY            CLOUDY    57  46  67 CALM      29.97F
CLOQUET        SUNNY     64  39  39 SW8       30.00S
BRAINERD       SUNNY     63  41  44 S8        30.01F
HIBBING        MOSUNNY   66  45  46 W5        29.98S
ALEXANDRIA     PTSUNNY   65  43  44 SE8       30.01F
SAINT CLOUD    SUNNY     68  44  42 S9        30.01F
MINNEAPOLIS    MOSUNNY   66  41  40 S10       30.04F
$$

  *****  WEATHER ACROSS SOUTH DAKOTA  *****

CITY           SKY/WX    TMP DP  RH WIND       PRES   REMARKS
SIOUX FALLS    MOSUNNY   68  49  50 S15       29.99F
BROOKINGS      NOT AVBL
WATERTOWN      SUNNY     67  51  56 S12G22    29.96F
HURON          SUNNY     73  54  51 S10       29.92F
SISSETON         N/A     69  49  48 S10       29.93F
ABERDEEN       SUNNY     70  54  56 S8        29.92F
MITCHELL       CLOUDY    72  56  57 S15       29.94F
PIERRE         MOSUNNY   78  51  38 NW3       29.89F
MOBRIDGE       SUNNY     74  51  44 CALM      29.89F
RAPID CITY     MOSUNNY   80  46  30 SE7       29.95F
$$

  *****  SOME WEATHER IN NEARBY STATES *****

CITY           SKY/WX    TMP DP  RH WIND       PRES   REMARKS
GLASGOW MT     SUNNY     76  41  28 S5        29.90F
GREAT FALLS MT CLOUDY    77  42  28 SW7       29.92F
CHEYENNE WY    MOSUNNY   80  28  15 NW10G23   30.15S
SCOTTSBLUFF NE SUNNY     88  36  15 VRB3      30.00F
OMAHA NE       MOSUNNY   68  48  48 SE10      30.04F
DES MOINES IA  SUNNY     67  47  48 S6        30.07F
DAVENPORT IA   SUNNY     64  40  41 SW7       30.11S
CHICAGO IL     SUNNY     68  40  35 W9        30.09F
EAU CLAIRE WI  SUNNY     64  41  42 S7        30.05F
LA CROSSE WI   SUNNY     67  44  43 SW3       30.07F
$$

  *****  SOME NATIONAL WEATHER *****

CITY           SKY/WX    TMP DP  RH WIND       PRES   REMARKS
LA GUARDIA NY  PTCLDY    66  57  72 S5        29.98R
RALEIGH NC     MOCLDY    75  64  68 E7        29.96S
ATLANTA GA     PTCLDY    83  66  56 NW8       29.99R
NEW ORLEANS LA CLOUDY    76  73  91 SW5       30.01R
OKLAHOMA CITY  PTSUNNY   86  70  58 NE9       30.01F HX  90
ALBUQUERQUE NM CLOUDY    70  59  68 S16       30.21S
SALT LAKE CITY MOSUNNY   91  35  13 CALM      29.98F
LOS ANGELES CA MOSUNNY   83  59  44 W12       29.70F
BOISE ID       SUNNY     92  41  17 N3        29.85F
SEATTLE WA     PTSUNNY   71  54  54 SW7       29.90S
$$

*** WEATHER ACROSS MANITOBA...SASKATCHEWAN AND ONTARIO ***
                ***ONTARIO***

CITY           SKY/WX    TMP DP  RH WIND       PRES   REMARKS
GERALDTON      PTCLDY    45  36  70 N8        30.00R
THUNDER BAY    PTSUNNY   54  46  76 NE10      29.98R
SIOUX LOOKOUT  MOSUNNY   46  36  66 NE5       30.00F
TORONTO        PTCLDY    61  41  48 NW14      30.04R
BIG TROUT LK   MOCLDY    39  23  52 NW8       30.05S
PICKLE LAKE    PTSUNNY   43  23  45 NE5       30.02S
DRYDEN         CLOUDY    50  41  71 NE5       29.99S
KENORA         PTSUNNY   57  45  62 NE3       29.96F
$$
                *** MANITOBA***

CITY           SKY/WX    TMP DP  RH WIND       PRES   REMARKS
BRANDON        MOSUNNY   72  43  35 SW8       29.91F
DAUPHIN        CLOUDY    59  50  72 E7        29.90F
ISLAND LAKE    CLOUDY    41  23  48 W5        30.07F
PILOT MOUND      N/A     72  37  28 W3          N/A
THE PAS        LGT RAIN  36  34  93 E10       30.04R FOG
THOMPSON       PTSUNNY   41  21  45 CALM      30.09S
WINNIPEG       PTSUNNY   61  48  63 NE8       29.92F
LYNN LAKE      SUNNY    N/A N/A N/A MISG        N/A
CHURCHILL      CLOUDY    36  21  55 NW18G25   30.07S
GILLAM         PTSUNNY   39  25  56 N14       30.11R
$$
                ***SASKATCHEWAN***

CITY           SKY/WX    TMP DP  RH WIND       PRES   REMARKS
ESTEVAN        MOSUNNY   73  43  33 SW3       29.91F
KINDERSLEY     MOSUNNY   77  41  27 W6        29.86F
LLOYDMINSTER   PTSUNNY   75  39  27 NW8       29.85F
PRINCE ALBERT  PTSUNNY   64  48  55 E6        29.88S
REGINA         MOSUNNY   73  41  31 W8        29.88F


USA.gov is the U.S. government's official web portal to all federal, state and local government web resources and services.